Theta_e
330 327 325 323 319 317 314 312 311 309 310 313 313 314 314 314 312 312 311 311 312 312 311 311 311 311 311 310 310 309 309 309
323 319 317 315 315 313 308 308 308 309 312 316 315 316 314 314 313 312 312 313 313 314 314 315 314 313 312 311 312 312 311 309
314 312 310 311 311 308 308 308 310 314 316 316 315 315 314 313 313 313 313 314 315 316 316 317 317 317 316 315 315 312 312 311
316 312 308 309 309 310 312 313 313 315 317 317 315 315 314 314 314 314 314 315 316 316 316 316 316 316 316 315 315 316 315 316
317 316 314 312 313 316 315 317 316 319 316 317 316 315 314 314 314 314 314 314 314 314 313 313 313 313 312 313 314 313 313 315
320 316 319 321 321 321 321 321 322 323 319 313 315 316 315 316 316 316 315 313 313 312 312 312 312 312 312 312 312 313 314 315
323 317 319 321 324 325 324 325 326 326 325 321 319 319 319 318 318 318 317 315 313 312 312 312 311 311 312 311 312 315 315 315
325 322 320 323 325 326 326 326 326 327 326 324 322 320 320 320 320 320 317 315 314 312 311 310 311 311 310 311 313 313 313 312
327 325 320 325 325 325 325 325 326 326 325 324 321 321 320 320 320 319 316 313 311 311 309 309 309 309 309 309 309 309 309 309
327 326 322 322 323 323 321 323 324 324 322 322 322 320 320 319 318 317 312 311 309 307 308 308 308 308 307 307 307 307 306 303
328 326 324 322 321 322 322 323 322 322 322 321 319 317 314 312 311 311 310 307 306 307 307 307 306 306 306 306 306 305 303 303
327 326 325 325 323 323 318 316 317 318 317 313 312 311 311 311 310 307 307 306 306 306 306 306 305 303 303 303 303 302 301 301
325 325 324 322 320 316 316 318 318 314 311 311 311 309 309 307 307 307 307 306 306 305 303 302 301 300 299 300 301 301 301 299
321 321 320 318 317 317 316 312 310 310 310 310 309 309 308 307 306 306 306 303 301 301 300 298 297 295 295 295 297 296 298 299
315 313 312 312 311 312 312 312 311 310 310 309 309 308 306 306 306 304 303 304 303 302 298 297 296 295 293 296 298 298 297 295
313 312 313 313 313 313 313 312 311 310 309 308 307 306 305 304 303 303 303 303 301 298 297 296 296 293 294 296 297 296 295 295
314 313 313 313 313 312 312 311 310 308 306 306 305 304 303 302 299 301 300 300 299 298 298 297 293 292 292 292 291 290 290 293
314 313 313 313 312 311 310 308 306 304 304 303 304 302 301 300 300 300 300 299 297 295 293 292 291 290 289 288 287 287 287 288
313 313 312 311 311 309 307 305 302 301 302 302 303 302 301 300 300 301 300 296 294 293 292 290 289 288 287 287 287 287 286 286
312 312 311 309 308 306 304 302 300 300 300 300 299 298 299 299 299 300 299 297 298 292 291 289 288 288 287 287 287 286 286 286
Wind_Speed
16 14 12 10 9 9 8 8 8 9 10 10 10 10 11 13 12 12 13 13 14 16 18 17 16 15 15 16 16 17 17 15
14 11 10 10 11 9 9 9 10 10 11 10 11 11 11 10 11 11 11 12 12 13 15 16 17 18 17 17 17 17 15 16
11 11 11 12 12 11 10 11 12 12 12 10 10 9 9 10 9 9 10 10 11 13 14 16 17 19 19 18 18 17 17 16
12 11 12 12 11 11 12 11 11 10 11 9 9 7 7 7 7 7 7 8 9 11 12 14 16 19 21 20 18 17 14 14
13 11 11 11 12 12 11 10 9 7 9 8 6 5 5 5 4 5 6 8 11 12 13 15 17 21 24 23 23 22 18 14
12 11 10 10 11 10 7 8 7 5 5 4 3 3 3 2 2 5 9 11 12 14 15 18 21 23 23 23 26 24 20 19
11 9 9 8 7 7 6 4 3 3 2 2 2 1 2 4 7 8 9 10 11 13 18 22 23 22 21 25 24 21 18 18
9 7 9 9 6 7 8 7 5 7 5 4 4 4 5 7 9 9 9 11 15 18 24 24 21 19 21 18 15 17 20 20
14 13 13 10 7 7 11 10 13 14 11 10 9 9 10 11 10 10 14 18 20 25 26 21 18 18 18 17 17 18 20 22
19 19 17 12 5 13 13 18 17 18 14 12 10 10 10 10 14 18 19 22 26 26 22 20 19 20 18 19 22 23 24 24
23 19 17 11 14 17 18 13 11 7 8 7 9 9 12 15 18 20 23 25 24 22 20 19 21 21 21 22 22 24 26 28
17 15 12 9 7 8 10 7 3 4 9 7 10 13 16 20 22 21 24 26 25 22 22 22 24 25 26 27 28 28 28 27
12 11 6 3 4 13 6 4 9 10 9 14 16 18 21 19 22 23 25 21 21 20 20 21 24 27 30 31 32 30 27 27
14 11 11 7 7 1 5 8 8 9 13 15 17 18 18 19 20 20 17 17 20 22 24 23 26 28 28 28 15 21 12 16
16 14 12 10 9 7 9 9 9 12 15 16 18 19 17 18 17 15 20 29 31 31 28 27 27 25 23 15 9 6 23 21
11 10 7 4 5 7 10 11 11 13 15 17 17 16 16 17 20 29 35 35 30 22 25 27 27 26 20 17 13 16 14 19
8 6 4 5 8 9 13 14 13 14 15 16 15 19 25 28 29 30 27 23 24 23 25 26 25 21 21 22 23 19 14 14
4 1 4 7 9 10 11 11 11 12 14 16 21 23 23 28 26 25 24 19 18 20 23 23 21 19 17 15 15 17 18 16
2 1 3 3 6 8 7 9 12 14 15 18 22 23 24 24 23 22 14 12 11 14 19 22 19 17 15 14 17 18 18 17
3 1 5 8 7 7 9 12 16 19 21 24 27 27 26 24 22 20 22 23 27 14 14 18 16 17 16 17 15 15 16 18
Wind_Direction
167 169 164 162 156 148 144 144 144 137 127 125 123 116 109 102 88 83 76 71 67 57 51 49 41 28 20 14 12 11 3 353
170 167 167 165 161 153 146 146 141 137 139 137 134 124 110 101 93 84 76 69 62 53 45 40 36 31 23 17 9 8 4 0
164 163 167 161 160 155 150 144 140 143 147 141 131 121 103 91 76 68 66 56 48 39 30 26 21 13 8 2 1 360 354 353
161 161 159 157 155 149 143 142 144 143 154 143 131 114 95 88 77 60 52 42 28 21 14 9 4 356 348 344 341 342 340 340
156 157 153 154 154 151 148 146 148 135 146 146 125 99 87 83 70 44 19 6 0 359 354 350 347 342 333 330 330 327 323 318
165 158 159 158 162 160 156 154 152 125 111 112 105 72 59 59 356 357 350 349 347 344 342 340 331 321 319 321 323 320 319 312
173 167 175 183 183 193 194 188 167 170 90 153 128 34 333 317 314 321 322 321 323 326 323 321 320 313 311 318 320 314 314 309
188 180 186 200 221 242 239 236 246 234 230 228 238 253 270 279 282 278 283 298 304 307 318 322 318 314 317 314 305 305 306 306
203 197 194 207 221 267 274 313 266 257 251 250 262 261 266 257 254 275 293 295 304 315 318 314 312 310 309 305 306 307 304 302
217 205 194 176 246 336 292 293 264 256 245 253 271 273 267 277 293 295 296 306 316 319 314 307 303 301 298 301 306 307 306 309
221 200 197 229 229 269 247 270 253 241 263 279 292 297 298 302 305 308 313 320 321 316 308 305 303 301 300 297 297 300 303 308
211 197 222 223 248 212 174 161 141 341 312 295 301 309 313 310 311 316 324 323 315 307 304 304 304 305 302 301 303 305 308 306
216 243 283 114 119 146 135 349 325 293 309 321 321 322 321 311 312 312 314 305 301 301 302 303 304 308 312 305 305 305 296 294
81 77 80 95 143 182 331 342 354 328 315 306 306 312 308 304 302 299 302 312 318 316 316 322 327 327 325 324 312 304 275 275
90 100 101 89 75 43 11 1 335 305 297 299 300 295 291 292 290 297 316 324 322 321 319 321 324 327 322 324 314 290 304 306
93 90 77 37 359 342 334 322 302 295 294 293 291 291 293 299 315 318 314 312 313 311 322 327 326 323 315 305 296 298 311 306
109 91 39 6 345 332 331 327 312 307 306 298 302 319 321 320 320 312 317 315 308 306 315 321 321 320 316 313 310 309 311 297
102 57 348 339 331 323 323 326 336 346 339 326 317 317 320 324 322 314 307 299 319 329 325 322 322 325 324 318 320 327 323 324
198 224 278 318 319 327 351 350 348 338 327 316 312 320 317 317 304 290 282 288 308 320 329 331 329 337 336 329 327 325 323 324
153 280 315 319 329 342 336 330 328 328 324 319 315 313 314 312 304 281 291 293 298 331 321 318 323 333 332 328 325 326 322 321